When you browse on this site, cookies collect data to enhance your experience and personalize the content and advertising you see.
Visit our Privacy Policy to learn more. By continuing to use the site, you agree to this use of cookies and data.
  • In Czech Republic
  • List of Countries
  • For 7 days
  • Water Temperature
  • Satellite Maps
  • Weather Map
  • Weather Widgets
  • user-avatar
    Login

    Hourly Weather Fedorkovo

    Today, 20 November, Tuesday

    Time Temperature Precipitation Wind Pressure Humidity
    00:00 -3°C° 0 mm 1 mps 764 mmHg 92%
    01:00 -4°C° 0 mm 1 mps 764 mmHg 93%
    02:00 -4°C° 0 mm 1 mps 764 mmHg 95%
    03:00 -4°C° 0 mm 1 mps 764 mmHg 95%
    04:00 -6°C° 0 mm 1 mps 764 mmHg 95%
    05:00 -6°C° 0 mm 1 mps 763 mmHg 95%
    06:00 -6°C° 0 mm 1 mps 763 mmHg 94%
    07:00 -6°C° 0 mm 1 mps 763 mmHg 94%
    08:00 -6°C° 0 mm 0 mps 763 mmHg 92%
    09:00 -5°C° 0 mm 0 mps 763 mmHg 87%
    10:00 -3°C° 0 mm 1 mps 762 mmHg 82%
    11:00 -2°C° 0 mm 1 mps 762 mmHg 77%
    12:00 -1°C° 0 mm 1 mps 762 mmHg 75%
    13:00 -1°C° 0 mm 1 mps 761 mmHg 74%
    14:00 -1°C° 0 mm 1 mps 761 mmHg 73%
    15:00 -1°C° 0 mm 1 mps 761 mmHg 77%
    16:00 -2°C° 0 mm 1 mps 761 mmHg 81%
    17:00 -3°C° 0 mm 1 mps 760 mmHg 85%
    18:00 -3°C° 0 mm 1 mps 760 mmHg 85%
    19:00 -3°C° 0 mm 1 mps 760 mmHg 85%
    20:00 -5°C° 0 mm 2 mps 760 mmHg 85%
    21:00 -5°C° 0 mm 2 mps 760 mmHg 85%
    22:00 -5°C° 0 mm 2 mps 760 mmHg 86%
    23:00 -5°C° 0 mm 2 mps 760 mmHg 86%

    Tomorrow, 21 November, Wednesday

    Time Temperature Precipitation Wind Pressure Humidity
    00:00 -5°C° 0 mm 2 mps 760 mmHg 88%
    01:00 -5°C° 0 mm 2 mps 760 mmHg 90%
    02:00 -5°C° 0 mm 2 mps 760 mmHg 92%
    03:00 -5°C° 0 mm 2 mps 760 mmHg 93%
    04:00 -2°C° 0 mm 1 mps 760 mmHg 94%
    05:00 -2°C° 0 mm 1 mps 760 mmHg 95%
    06:00 -2°C° 0 mm 1 mps 760 mmHg 95%
    07:00 -1°C° 0 mm 1 mps 760 mmHg 94%
    08:00 0°C° 0 mm 1 mps 760 mmHg 94%
    09:00 0°C° 0 mm 1 mps 760 mmHg 91%
    10:00 +1°C° 0 mm 1 mps 760 mmHg 89%
    11:00 -1°C° 0 mm 2 mps 761 mmHg 87%
    12:00 +1°C° 0 mm 1 mps 760 mmHg 86%
    13:00 +1°C° 0 mm 1 mps 760 mmHg 85%
    14:00 +2°C° 0 mm 1 mps 760 mmHg 84%
    15:00 +1°C° 0 mm 1 mps 760 mmHg 87%
    16:00 0°C° 0 mm 1 mps 760 mmHg 89%
    17:00 -1°C° 0 mm 1 mps 760 mmHg 92%
    18:00 -1°C° 0 mm 1 mps 760 mmHg 93%
    19:00 -2°C° 0 mm 1 mps 760 mmHg 94%
    20:00 -2°C° 0 mm 1 mps 760 mmHg 95%
    21:00 -2°C° 0 mm 1 mps 760 mmHg 95%
    22:00 -3°C° 0 mm 1 mps 760 mmHg 95%
    23:00 -3°C° 0 mm 1 mps 759 mmHg 95%

    Day after tomorrow, 22 November, Thursday

    Time Temperature Precipitation Wind Pressure Humidity
    00:00 -5°C° 0 mm 2 mps 759 mmHg 94%
    01:00 -5°C° 0 mm 2 mps 759 mmHg 94%
    02:00 -5°C° 0 mm 2 mps 759 mmHg 93%
    03:00 -5°C° 0 mm 2 mps 759 mmHg 94%
    04:00 -5°C° 0 mm 2 mps 758 mmHg 94%
    05:00 -4°C° 0 mm 2 mps 758 mmHg 94%
    06:00 -4°C° 0 mm 2 mps 758 mmHg 94%
    07:00 -5°C° 0 mm 3 mps 757 mmHg 94%
    08:00 -5°C° 0 mm 3 mps 757 mmHg 94%
    09:00 -5°C° 0 mm 3 mps 757 mmHg 89%
    10:00 -4°C° 0 mm 3 mps 756 mmHg 85%
    11:00 -3°C° 0 mm 4 mps 756 mmHg 81%
    12:00 -3°C° 0 mm 4 mps 756 mmHg 80%
    13:00 -2°C° 0 mm 4 mps 756 mmHg 80%
    14:00 -2°C° 0 mm 4 mps 755 mmHg 79%
    15:00 -2°C° 0 mm 4 mps 755 mmHg 82%
    16:00 -3°C° 0 mm 4 mps 755 mmHg 85%
    17:00 -3°C° 0 mm 4 mps 755 mmHg 88%
    18:00 -3°C° 0 mm 4 mps 755 mmHg 87%
    19:00 -1°C° 0 mm 3 mps 755 mmHg 87%
    20:00 -1°C° 0 mm 3 mps 756 mmHg 87%
    21:00 -1°C° 0 mm 3 mps 756 mmHg 89%
    22:00 -2°C° 0 mm 3 mps 756 mmHg 90%
    23:00 -2°C° 0 mm 2 mps 756 mmHg 92%

    23 November, Friday

    Time Temperature Precipitation Wind Pressure Humidity
    00:00 -2°C° 0 mm 2 mps 756 mmHg 93%
    01:00 -2°C° 0 mm 2 mps 757 mmHg 93%
    02:00 -2°C° 0 mm 2 mps 757 mmHg 94%
    03:00 -2°C° 0 mm 2 mps 757 mmHg 95%
    04:00 -1°C° 0 mm 1 mps 757 mmHg 96%
    05:00 -1°C° 0 mm 1 mps 758 mmHg 96%
    06:00 -1°C° 0 mm 1 mps 758 mmHg 96%
    07:00 -1°C° 0 mm 1 mps 758 mmHg 96%
    08:00 -1°C° 0 mm 1 mps 759 mmHg 96%
    09:00 0°C° 0 mm 1 mps 759 mmHg 94%
    10:00 0°C° 0 mm 1 mps 759 mmHg 92%
    11:00 +1°C° 0 mm 1 mps 759 mmHg 90%
    12:00 +1°C° 0 mm 1 mps 759 mmHg 89%
    13:00 -1°C° 0 mm 2 mps 759 mmHg 88%
    14:00 +1°C° 0 mm 2 mps 759 mmHg 86%
    15:00 -1°C° 0 mm 2 mps 758 mmHg 87%
    16:00 -1°C° 0 mm 2 mps 758 mmHg 87%
    17:00 -1°C° 0 mm 2 mps 758 mmHg 87%
    18:00 -1°C° 0 mm 3 mps 758 mmHg 88%
    19:00 -1°C° 0 mm 3 mps 757 mmHg 88%
    20:00 -2°C° 0 mm 3 mps 757 mmHg 88%
    21:00 -2°C° 0 mm 3 mps 757 mmHg 87%
    22:00 -2°C° 0 mm 3 mps 756 mmHg 86%
    23:00 -3°C° 0 mm 4 mps 756 mmHg 85%

    24 November, Saturday

    Time Temperature Precipitation Wind Pressure Humidity
    00:00 -3°C° 0 mm 4 mps 756 mmHg 85%
    01:00 -3°C° 0 mm 4 mps 755 mmHg 86%
    02:00 -3°C° 0 mm 4 mps 755 mmHg 86%
    03:00 -4°C° 0 mm 3 mps 754 mmHg 86%
    04:00 -4°C° 0 mm 3 mps 754 mmHg 87%
    05:00 -4°C° 0 mm 3 mps 753 mmHg 88%
    06:00 -5°C° 0 mm 3 mps 753 mmHg 89%
    07:00 -5°C° 0 mm 3 mps 752 mmHg 90%
    08:00 -6°C° 0 mm 3 mps 752 mmHg 90%
    09:00 -5°C° 0 mm 3 mps 751 mmHg 88%
    10:00 -5°C° 0 mm 3 mps 751 mmHg 85%
    11:00 -4°C° 0 mm 3 mps 751 mmHg 82%
    12:00 -4°C° 0 mm 3 mps 750 mmHg 81%
    13:00 -4°C° 0 mm 3 mps 750 mmHg 80%
    14:00 -2°C° 0 mm 3 mps 750 mmHg 79%
    15:00 -4°C° 0 mm 3 mps 750 mmHg 80%
    16:00 -3°C° 0 mm 2 mps 749 mmHg 81%
    17:00 -3°C° 0 mm 2 mps 749 mmHg 82%
    18:00 -3°C° 0 mm 2 mps 749 mmHg 83%
    19:00 -3°C° 0 mm 2 mps 749 mmHg 84%
    20:00 -3°C° 0 mm 2 mps 749 mmHg 85%
    21:00 -3°C° 0 mm 2 mps 749 mmHg 86%
    22:00 -3°C° 0 mm 2 mps 750 mmHg 88%
    23:00 -3°C° 0 mm 2 mps 750 mmHg 89%

    25 November, Sunday

    Time Temperature Precipitation Wind Pressure Humidity
    00:00 -1°C° 0 mm 1 mps 750 mmHg 90%
    01:00 -1°C° 0 mm 1 mps 750 mmHg 91%
    02:00 -1°C° 0 mm 1 mps 750 mmHg 92%
    03:00 -1°C° 0 mm 1 mps 750 mmHg 93%
    04:00 -1°C° 0 mm 1 mps 750 mmHg 93%
    05:00 -1°C° 0 mm 1 mps 750 mmHg 94%
    06:00 -1°C° 0 mm 1 mps 750 mmHg 93%
    07:00 -1°C° 0 mm 1 mps 750 mmHg 93%
    08:00 -1°C° 0 mm 1 mps 750 mmHg 92%
    09:00 -1°C° 0 mm 1 mps 750 mmHg 90%
    10:00 0°C° 0 mm 1 mps 750 mmHg 87%
    11:00 0°C° 0 mm 1 mps 751 mmHg 84%
    12:00 0°C° 0 mm 1 mps 750 mmHg 84%
    13:00 0°C° 0 mm 1 mps 750 mmHg 84%
    14:00 0°C° 0 mm 1 mps 750 mmHg 84%
    15:00 -1°C° 0 mm 1 mps 750 mmHg 87%
    16:00 -2°C° 0 mm 1 mps 750 mmHg 90%
    17:00 -2°C° 0 mm 1 mps 750 mmHg 92%
    18:00 -3°C° 0 mm 1 mps 750 mmHg 93%
    19:00 -3°C° 0 mm 1 mps 750 mmHg 93%
    20:00 -3°C° 0 mm 1 mps 750 mmHg 93%
    21:00 -3°C° 0 mm 1 mps 750 mmHg 93%
    22:00 -3°C° 0 mm 1 mps 750 mmHg 93%
    23:00 -3°C° 0 mm 1 mps 750 mmHg 93%
    Show more